Weather in Malolos

Philippines     14°50′40″N   120°48′43″E
temp.,
°C
wind,
m/s
gust,
m/s
humid.,
%
clouds,
%
prec.,
mm/h
press.,
hPa
HPBL,
m
26 february, fri
fri2623:00+27se67781 0.0 1009344
02:00+26ese34811 0.0 1008384
05:00+24nne238166 0.0 1008173
08:00+25ne227874 0.0 1010238
11:00+28sw116860 0.0 1009390
14:00+28sw226268 0.0 1008383
17:00+30ssw11645 0.0 100782
20:00+28ssw45743 0.0 1009117
27 february, sat
sat2723:00+27wsw13780 0.1 1010212
02:00+26n12783 0.3 1009207
05:00+25ne337935 0.0 1009191
08:00+25nne237757 0.0 1011265
11:00+28ssw12672 0.0 1011387
14:00+29ssw436018 0.0 1009222
17:00+29s346864 0.0 1008139
20:00+27ene467165 0.1 1011184
28 february, sun
sun2823:00+26ne127595 0.0 1012172
02:00+25n337859 0.0 1011184
05:00+25nne46824 0.0 1010245
08:00+26ne467526 0.0 1013450
11:00+29e356549 0.0 1013542
14:00+30ene796145 0.0 1011548
17:00+29ene79650 0.0 1010402
20:00+27ene57740 0.0 1012380
1 march, mon
mon123:00+26nne347723 0.0 1013251
02:00+25nne458053 0.0 1012234
05:00+25nne4683100 0.0 1012245
08:00+26ne457998 0.0 1014393
11:00+28ese136815 0.0 1014570
14:00+30ssw23619 0.0 1011537
17:00+30ne126718 0.0 1011252
20:00+28e347411 0.0 1013131
2 march, tue
tue223:00+27ne23760 0.0 1014220
02:00+25nne33800 0.0 1012240
05:00+25nne33841 0.0 1012220
08:00+25nne238016 0.0 1014276
11:00+27ssw227216 0.0 1014417
14:00+29wnw126620 1.7 1012380
17:00+28sw12716 1.6 101297
20:00+28e24765 1.8 1013150